Location: Sedan
(39.2354°N, 78.5718°W)
Time: 14:26:09
(UTC+00:00)

Envisat - Pass Details

Date: 10 December 2021
Orbit: 764 x 766 km, 98.2° (Epoch: 19 January)

Event Time Altitude Azimuth Distance (km) Brightness Sun altitude
Rises 10:10:26 0° 13° (NNE) 3,239 6.3 -24.9°
Reaches altitude 10° 10:12:45 10° 14° (NNE) 2,309 5.5 -24.5°
Maximum altitude 10:17:51 83° 103° (ESE) 776 3.0 -23.5°
Drops below altitude 10° 10:22:55 10° 191° (S) 2,292 5.5 -22.5°
Sets 10:25:12 0° 192° (SSW) 3,213 6.2 -22.1°
